Total_Precipitation_Accumulation
2.50 2.80 2.93 3.26 3.17 3.18 3.45 3.89 3.92 4.16 4.15 4.01 3.78 3.40 3.26 2.98 2.63 2.69 2.77 2.65 2.56 2.84 3.46 3.92 3.82 3.56 3.23 3.15 3.09 2.91 2.59 2.35 2.15 1.81 1.62 1.66 1.66 1.55 1.44 1.37 1.28 1.18 1.00
3.08 3.41 3.46 3.60 3.41 3.38 3.77 4.10 4.19 4.72 4.61 4.35 3.87 3.60 3.38 3.22 2.90 2.74 2.90 3.00 2.64 2.60 3.09 3.87 4.18 4.00 3.77 3.73 3.50 3.20 2.89 2.60 2.46 2.00 1.67 1.60 1.69 1.72 1.64 1.55 1.34 1.14 0.93
3.53 3.82 3.79 3.70 3.69 3.71 4.02 4.27 4.43 4.55 4.25 4.05 3.92 3.76 3.59 3.33 2.89 2.85 2.86 3.04 2.83 2.63 2.96 3.42 3.91 4.06 4.18 4.27 4.01 3.67 3.21 2.81 2.49 2.13 1.72 1.58 1.64 1.65 1.60 1.55 1.35 1.10 0.87
3.59 4.09 3.87 3.68 4.04 3.92 4.11 4.68 4.73 4.60 4.53 4.26 4.05 3.73 3.53 3.37 2.84 2.74 2.74 2.97 3.28 2.82 2.93 3.33 3.59 3.73 4.32 4.69 4.64 4.43 3.89 3.28 2.66 2.23 1.84 1.67 1.70 1.66 1.56 1.43 1.33 1.13 0.87
3.41 3.83 3.70 3.79 3.86 4.19 4.33 4.04 4.67 4.76 4.61 4.32 3.67 3.48 3.13 3.01 2.89 2.60 2.74 2.79 3.15 2.98 2.98 3.05 3.36 3.57 4.25 5.02 5.43 5.34 4.85 4.17 3.39 2.83 2.50 2.32 2.29 2.11 1.81 1.61 1.44 1.25 0.95
3.27 3.77 3.61 3.62 3.69 4.13 4.25 4.22 4.65 4.61 4.31 4.26 3.39 3.20 3.03 2.62 2.56 2.62 2.48 2.68 2.88 2.54 2.73 3.02 3.48 3.13 3.50 4.07 4.99 5.48 5.47 5.18 4.56 4.16 3.92 3.55 3.23 2.79 2.18 1.74 1.50 1.35 1.12
3.20 3.70 3.37 3.76 3.66 3.85 3.95 3.92 4.26 4.39 4.02 4.06 4.05 3.59 2.86 2.40 2.34 2.32 2.36 2.59 2.59 2.66 3.23 3.74 3.89 3.79 3.63 3.55 3.89 4.46 5.28 5.59 5.14 4.68 4.62 4.49 4.25 3.58 2.73 2.12 1.72 1.46 1.31
3.03 3.22 3.49 3.43 3.44 3.62 3.63 3.71 4.07 4.05 3.64 3.79 4.06 4.14 3.38 3.02 2.49 1.92 2.25 2.40 2.50 2.85 3.07 3.27 3.68 4.06 4.18 4.49 3.85 3.67 4.36 5.09 5.23 4.93 4.59 4.60 4.47 3.71 2.98 2.62 2.18 1.74 1.58
2.80 2.92 3.18 3.22 3.21 3.06 3.31 3.57 3.55 3.62 3.57 3.55 3.61 4.05 3.74 3.32 2.82 2.23 2.07 2.17 2.50 2.78 2.78 3.01 3.09 3.44 3.76 4.44 4.49 3.92 3.66 3.89 4.44 5.06 5.00 4.63 4.29 3.66 3.17 2.99 2.76 2.31 2.04
2.54 2.67 2.76 2.76 2.81 2.77 3.08 2.83 2.92 3.27 3.55 3.43 3.35 3.29 3.35 3.50 3.38 2.71 2.22 2.11 2.37 2.53 2.53 2.49 2.76 3.19 3.34 3.67 4.00 3.88 3.49 3.17 3.40 4.11 4.72 4.76 4.42 3.80 3.43 3.39 3.54 3.31 2.78
2.45 2.39 2.56 2.61 2.60 2.53 2.64 2.71 3.05 3.02 3.17 3.20 3.22 3.21 3.32 3.36 3.20 3.00 2.62 2.48 2.43 2.16 2.14 2.29 2.55 2.89 3.08 3.31 3.62 3.63 3.66 3.14 3.08 3.23 3.65 4.10 4.28 4.17 3.84 3.80 4.18 4.27 3.87
2.41 2.33 2.39 2.57 2.47 2.43 2.55 2.64 2.75 2.74 2.85 2.97 2.97 2.98 3.22 3.11 3.06 3.18 2.85 2.66 2.54 2.20 2.15 2.23 2.36 2.63 2.77 2.93 2.85 3.17 3.21 2.90 2.79 2.69 2.68 2.96 3.38 3.70 3.84 4.02 4.49 4.72 4.60
1.99 2.06 2.24 2.34 2.27 2.26 2.35 2.51 2.55 2.66 2.78 2.81 2.73 2.73 2.79 2.81 2.96 3.14 3.24 2.90 2.63 2.26 2.28 2.20 2.19 2.43 2.49 2.76 2.74 2.66 2.43 2.32 2.19 2.08 2.14 2.23 2.39 2.72 3.00 3.38 3.95 4.40 4.55
1.72 1.79 1.92 1.97 2.05 2.11 2.11 2.49 2.48 2.59 2.74 2.65 2.46 2.83 2.72 2.50 2.71 2.93 3.24 3.45 3.16 2.68 2.63 2.46 2.18 2.12 2.25 2.37 2.44 2.27 1.89 1.85 1.71 1.65 1.64 1.67 1.76 1.90 2.10 2.33 2.68 2.99 3.31
1.87 1.88 1.85 1.89 2.01 2.18 2.37 2.65 2.65 2.66 2.75 2.64 2.66 2.83 2.68 2.47 2.49 2.60 3.07 3.46 3.63 3.23 2.95 2.75 2.52 2.15 2.09 2.12 2.25 1.98 1.91 1.78 1.53 1.49 1.46 1.40 1.41 1.51 1.67 1.77 1.86 1.99 2.10
2.05 2.06 2.04 2.04 2.00 2.10 2.33 2.56 2.60 2.61 2.73 2.74 2.77 2.90 2.89 2.64 2.66 2.69 3.03 3.37 3.60 3.69 3.20 2.81 2.75 2.41 2.22 2.03 2.24 2.03 1.90 1.85 1.56 1.43 1.41 1.34 1.26 1.25 1.29 1.36 1.42 1.48 1.56
1.94 1.90 1.86 1.87 1.89 1.98 2.13 2.23 2.19 2.29 2.35 2.51 2.45 2.60 2.73 2.86 2.83 2.85 3.08 3.25 3.49 3.76 3.34 3.03 3.12 2.93 2.65 2.38 2.23 2.15 1.93 1.80 1.64 1.52 1.35 1.32 1.26 1.19 1.21 1.25 1.27 1.34 1.40
1.63 1.54 1.60 1.64 1.63 1.67 1.79 1.78 1.77 1.94 2.11 2.31 2.46 2.61 2.51 2.65 2.69 2.71 2.92 3.17 3.43 3.69 3.51 3.37 3.51 3.43 3.14 2.77 2.61 2.44 2.06 1.86 1.76 1.73 1.49 1.34 1.29 1.25 1.19 1.23 1.26 1.26 1.28
1.33 1.33 1.41 1.46 1.47 1.52 1.53 1.52 1.63 1.76 1.90 2.09 2.28 2.31 2.23 2.38 2.39 2.57 2.68 2.84 3.09 3.36 3.46 3.35 3.44 3.51 3.25 3.01 2.85 2.49 2.24 2.20 1.87 1.87 1.82 1.54 1.35 1.29 1.28 1.26 1.25 1.28 1.28
1.29 1.31 1.41 1.48 1.48 1.53 1.58 1.71 1.81 1.87 1.96 1.96 1.93 1.92 1.89 1.98 2.12 2.40 2.50 2.60 2.79 3.04 3.17 3.18 3.30 3.35 3.23 3.16 3.12 2.77 2.56 2.43 2.15 1.81 1.83 1.64 1.53 1.43 1.34 1.28 1.28 1.32 1.39
1.27 1.33 1.45 1.54 1.60 1.57 1.48 1.70 1.84 1.79 1.86 1.85 1.76 1.60 1.50 1.59 1.73 1.92 1.89 2.16 2.40 2.60 2.73 2.89 3.07 3.29 3.15 3.18 3.03 2.91 2.72 2.62 2.49 2.16 2.09 1.80 1.63 1.47 1.33 1.27 1.25 1.31 1.44
1.33 1.32 1.31 1.41 1.40 1.17 1.30 1.51 1.63 1.66 1.74 1.77 1.67 1.53 1.40 1.40 1.46 1.55 1.60 1.70 1.90 2.11 2.32 2.61 2.82 3.00 2.87 2.86 3.02 3.00 2.92 2.75 2.64 2.48 2.55 2.38 2.10 1.92 1.61 1.31 1.26 1.27 1.35
1.38 1.38 1.36 1.39 1.36 1.31 1.39 1.39 1.39 1.49 1.61 1.61 1.67 1.68 1.40 1.17 1.33 1.33 1.41 1.43 1.50 1.65 1.89 2.24 2.44 2.50 2.67 2.72 3.02 3.07 3.20 3.08 2.90 2.78 2.91 2.85 2.67 2.49 1.84 1.63 1.57 1.33 1.25
1.41 1.43 1.44 1.41 1.47 1.45 1.48 1.36 1.38 1.37 1.47 1.55 1.58 1.56 1.53 1.44 1.37 1.36 1.39 1.39 1.27 1.34 1.51 1.57 1.77 2.08 2.58 2.89 2.92 2.98 3.26 3.23 3.01 2.90 2.96 3.02 2.79 2.68 2.17 1.76 1.57 1.28 1.16
1.45 1.43 1.42 1.38 1.38 1.46 1.53 1.42 1.41 1.38 1.50 1.54 1.53 1.48 1.45 1.44 1.48 1.35 1.40 1.40 1.30 1.27 1.33 1.44 1.55 1.78 2.10 2.45 2.65 2.73 2.86 3.00 2.99 2.93 2.96 3.08 2.98 2.88 2.84 2.48 1.89 1.54 1.23
1.63 1.59 1.51 1.46 1.43 1.47 1.49 1.31 1.27 1.24 1.36 1.42 1.50 1.41 1.29 1.22 1.28 1.25 1.35 1.44 1.32 1.28 1.36 1.38 1.37 1.47 1.63 1.83 1.96 1.95 2.12 2.33 2.46 2.61 2.56 2.81 3.06 3.15 3.35 3.23 2.64 2.05 1.66